Regional Weather Roundup
Issued by NWS

Home | Current Version | Previous Version | Text Only | Print | Product List | Glossary On
Versions: 1 2 3 4 5 6 7 8 9 10 11 12 13 14 15 16 17 18 19 20 21 22 23 24 25 26 27 28 29 30 31 32 33 34 35 36 37 38 39 40 41 42 43 44 45 46 47 48 49 50
000
ASUS44 KMEG 241210
RWRTN
TENNESSEE HOURLY STATE WEATHER ROUNDUP
NATIONAL WEATHER SERVICE MEMPHIS TN
600 AM CST WED JAN 24 2018

TNZ002-004-019-021-049-052-054-088>092-241300-
WEST TENNESSEE

CITY           SKY/WX    TMP DP  RH WIND       PRES   REMARKS
MEMPHIS INTL   FAIR      29  27  92 CALM      30.34R
NWS MEMPHIS      N/A     25 N/A N/A MISG        N/A
JACKSON        FAIR      25  23  92 SW5       30.32S WCI  19
DYERSBURG      FAIR      26  25  96 SW3       30.34R
SOMERVILLE     CLEAR     25  23  93 CALM      30.32R
COVINGTON      CLEAR     25  23  93 CALM      30.35R
UNION CITY     CLEAR     25  25 100 CALM      30.31S
BOLIVAR        CLEAR     23  23 100 CALM      30.32R
PARIS          CLEAR     27  25  93 W3        30.29R
HUNTINGDON     CLEAR     28  28 100 CALM      30.29S
LEXINGTON      CLEAR     25  23  93 CALM      30.31R
SELMER         CLEAR     27  25  93 W3        30.31R
SAVANNAH       CLEAR     25  23  93 CALM      30.32R
$$

TNZ008-025-027-028-033-062-065-066-241300-
NORTH MIDDLE TENNESSEE

CITY           SKY/WX    TMP DP  RH WIND       PRES   REMARKS
NASHVILLE      CLOUDY    36  27  69 E3        30.29R
PORTLAND       CLOUDY    36  28  75 CALM      30.27S
CLARKSVILLE    CLOUDY    34  27  75 CALM      30.28S
SMYRNA         CLOUDY    35  28  75 CALM      30.31R
COOKEVILLE     CLOUDY    34  27  75 N5        30.26S WCI  30
GALLATIN       CLOUDY    36  28  75 CALM      30.32R
CROSSVILLE     CLOUDY    30  24  78 N7        30.22S WCI  23
$$

TNZ061-075-076-078-094-096-097-241300-
SOUTH MIDDLE TENNESSEE

CITY           SKY/WX    TMP DP  RH WIND       PRES   REMARKS
FAYETTEVILLE   CLEAR     30  27  86 N3        30.26R
TULLAHOMA      CLOUDY    32  25  74 N6        30.25S WCI  26
WINCHESTER     PTCLDY    30  25  80 N3        30.26F
MCMINNVILLE    CLOUDY    34  25  69 N6        30.26F WCI  29
COLUMBIA       PTCLDY    25  25 100 CALM      30.28R
SHELBYVILLE    CLEAR     30  27  86 NE5       30.27S WCI  25
$$

TNZ017-018-042-046-047-241300-
NORTHEAST TENNESSEE

CITY           SKY/WX    TMP DP  RH WIND       PRES   REMARKS
TRI CITIES     CLOUDY    34  29  82 W7        30.19S WCI  28
ELIZABETHTON   FAIR      32  27  80 W5        30.18S WCI  27
$$

TNZ012-013-036-069-073-074-241300-
CENTRAL EAST TENNESSEE

CITY           SKY/WX    TMP DP  RH WIND       PRES   REMARKS
KNOXVILLE      CLOUDY    36  27  69 NW8       30.23R WCI  30
OAK RIDGE      CLOUDY    36  27  69 CALM      30.26R
DOWNTOWN KNOXV CLOUDY    37  28  70 N3        30.25R
GATLINBURG     CLOUDY    32  27  80 CALM      30.23R
MORRISTOWN     CLOUDY    36  30  80 NW5       30.21R WCI  32
JACKSBORO      CLOUDY    34  27  75 VRB5      30.29R WCI  30
$$

TNZ083-085-099-241300-
SOUTHEAST TENNESSEE

CITY           SKY/WX    TMP DP  RH WIND       PRES   REMARKS
CHATTANOOGA    FAIR      36  26  67 NW10      30.26R WCI  28
DAYTON         CLOUDY    37  32  81 N5        30.25R WCI  34
$$

SKY/WX REPORTED AS FAIR MEANS FEW OR NO CLOUDS BELOW
12 THOUSAND FEET.




USA.gov is the U.S. government's official web portal to all federal, state and local government web resources and services.